Content
SEND FEEDBACK

Daily
Averages
Monthly
Summary
United Kingdom

LINCOLN, ENGLAND


Home > Europe > United Kingdom > England
Elevation: 219 feet     Latitude: 53 01N     Longitude: 000 30W

WEATHER
 
SELECT A DAY
Number of Records: 143,655;   Date Range: 3/25/98 - 9/29/14
 
SHARE

PRINT THIS DATA

[ ← Previous Day ]
WEATHER ALMANAC - SEPTEMBER 28, 2013
[ Next Day → ]
[ °C ]   °F
Weather ElementAverageHighLow
Temperature55.1 °F67 °F (3:50 pm)46 °F (3:50 am)
Dewpoint49.3 °F62.6 °F (2:50 pm)44.6 °F (1:50 am)
Humidity81.4 %100 % (3:50 am)45 % (3:50 pm)
Barometer29.88 in29.95 in (1:50 am)29.83 in (2:50 pm)
Wind Speed11.1 mph17.3 mph (3:50 pm)
Weather ElementAverage
Visibility5.9 mi
Wind DirectionENE (79.7 °)

Weather ElementTotal
Precipitation---
Heating Degree Days8.5 (Base 65)
Growing Degree Days6.5 (Base 50)
Averaged from 33 records on September 28, 2013
WEATHER CONDITIONS BREAKOUT
WIND DIRECTION BREAKOUT
WEATHER BY HOUR - SEPTEMBER 28, 2013
[ °C ]   °F
Local TimeTemperatureDewpointHumidityBarometerVisibilityWind DirectionWind SpeedGust SpeedPrecipitationEventsConditions
1:50 AM46.4 °F44.6 °F93 %29.95 in5.6 miEast (90°)5.8 mphMostly Cloudy
2:50 AM46.4 °F44.6 °F93 %29.95 in3.7 miNNE (20°)2.3 mphPartly Cloudy
3:50 AM46.0 °F46.0 °F97 %29.93 in4.0 miNE (40°)4.6 mph
3:50 AM46.4 °F46.4 °F100 %29.92 in3.7 miNE (40°)4.6 mph
4:50 AM46.4 °F46.4 °F100 %29.89 inNNE (30°)5.8 mph
5:50 AM46.4 °F46.4 °F100 %29.89 in1.4 miNNE (20°)5.8 mph
6:50 AM47.0 °F47.0 °F99 %29.91 in1.0 miNE (50°)6.9 mphMist
6:50 AM46.4 °F46.4 °F100 %29.89 in0.9 miNE (50°)6.9 mphPartly Cloudy
7:50 AM48.2 °F48.2 °F100 %29.89 in0.7 miENE (70°)6.9 mphPartly Cloudy
8:42 AM51.8 °F50.0 °F94 %29.89 inEast (80°)8.1 mphPartly Cloudy
8:50 AM51.8 °F51.8 °F100 %29.89 inEast (80°)8.1 mphPartly Cloudy
9:14 AM53.6 °F51.8 °F94 %29.92 in2.8 miEast (90°)8.1 mphHaze
9:50 AM57.0 °F52.0 °F76 %29.92 in4.0 miESE (110°)11.5 mphHaze
9:50 AM57.2 °F51.8 °F82 %29.89 in3.7 miESE (110°)11.5 mphHaze
10:24 AM59.0 °F51.8 °F77 %29.89 in5.6 miEast (100°)15.0 mphHaze
10:50 AM60.8 °F48.2 °F63 %29.89 inEast (100°)15.0 mphClear
11:50 AM62.6 °F50.0 °F63 %29.89 inEast (100°)12.7 mphClear
12:50 PM65.0 °F53.0 °F57 %29.88 in12.0 miEast (100°)13.8 mphClear
12:50 PM66.2 °F53.6 °F64 %29.89 inEast (100°)13.8 mphClear
1:50 PM66.2 °F50.0 °F56 %29.86 inEast (90°)13.8 mphClear
2:50 PM66.2 °F62.6 °F88 %29.83 inEast (90°)16.1 mphClear
3:50 PM67.0 °F50.0 °F45 %29.84 in16.0 miEast (100°)17.3 mphClear
3:50 PM66.2 °F50.0 °F56 %29.83 inEast (100°)17.3 mphClear
4:50 PM64.4 °F48.2 °F56 %29.83 in6.2 miEast (90°)17.3 mph
5:50 PM60.8 °F48.2 °F63 %29.83 in6.2 miEast (80°)17.3 mph
6:50 PM55.4 °F48.2 °F77 %29.83 in6.2 miEast (90°)15.0 mph
6:50 PM55.0 °F48.0 °F71 %29.86 in19.0 miEast (90°)15.0 mph
7:50 PM53.6 °F48.2 °F82 %29.86 in6.2 miEast (80°)13.8 mph
8:50 PM53.6 °F48.2 °F82 %29.86 in6.2 miEast (100°)15.0 mph
9:50 PM51.0 °F49.0 °F88 %29.88 in9.0 miEast (90°)10.4 mph
9:50 PM51.8 °F48.2 °F88 %29.86 in6.2 miEast (90°)10.4 mph
10:50 PM51.8 °F50.0 °F94 %29.86 in6.2 miEast (80°)10.4 mph
11:50 PM51.8 °F48.2 °F88 %29.86 in6.2 miEast (80°)9.2 mph
Hourly data recorded from EGYD, located miles away from Lincoln, England







STORIES FROM OUR PARTNERS